Wind_Speed
23 22 22 23 23 22 23 23 23 24 24 24 24 25 26 27 27 28 29 29 30 31 31 32 32 33 34 34 35 35 36 36 37 38 39 39 39 40 39 40 40 39 40
24 24 24 24 24 25 25 24 24 25 25 26 26 27 27 28 28 29 30 31 32 32 33 33 34 34 35 35 36 36 37 38 39 40 40 40 40 40 40 40 40 41 41
26 26 26 26 26 26 27 26 26 26 26 27 28 28 28 29 30 31 32 32 33 33 34 34 34 35 36 36 37 38 39 40 41 41 41 41 41 41 42 42 42 43 44
29 28 28 29 28 28 28 28 28 27 28 28 29 29 30 30 31 32 33 34 34 34 34 35 36 36 37 38 39 40 40 41 41 42 42 42 43 43 44 44 45 46 47
31 31 31 30 30 30 29 29 29 29 29 29 30 30 31 31 32 33 34 35 35 35 35 36 37 37 38 39 40 41 41 42 43 43 44 45 46 46 47 47 48 48 48
32 33 33 32 32 32 31 31 31 31 30 30 30 31 32 33 33 34 35 35 36 36 36 37 38 39 39 40 41 42 43 44 45 45 46 46 47 48 48 49 49 49 49
34 34 34 34 33 33 33 33 32 32 32 32 31 32 33 33 34 35 35 36 36 37 37 39 40 40 41 42 43 44 44 45 45 46 46 47 48 48 49 49 49 50 50
36 36 35 35 35 34 33 33 33 33 33 33 33 33 33 33 34 35 35 35 36 37 38 39 41 42 43 44 44 45 45 46 47 47 48 48 48 48 48 48 49 49 49
38 38 37 36 35 34 34 33 33 34 34 34 34 34 35 35 35 34 35 36 37 38 39 41 43 43 44 45 45 46 46 47 47 48 48 48 48 48 48 48 48 49 48
39 38 37 36 36 35 34 34 34 34 34 34 35 35 36 37 37 36 36 37 38 39 41 43 44 45 46 46 46 47 47 47 47 48 48 48 48 49 49 49 49 49 49
39 39 39 38 37 36 35 35 35 35 36 36 36 37 37 37 38 38 37 38 39 40 42 44 45 45 46 47 47 47 48 48 48 48 49 49 49 49 50 50 49 49 48
40 40 39 39 37 36 36 36 36 37 37 37 38 38 38 39 39 40 40 40 41 42 44 45 45 45 46 46 47 48 49 50 50 49 49 49 49 50 50 49 48 47 47
41 41 40 39 38 38 37 37 37 38 38 38 39 39 40 40 40 41 42 43 44 44 46 46 45 45 46 47 47 48 49 50 50 50 50 50 49 50 49 48 46 46 46
41 41 40 40 39 38 38 38 39 38 38 39 39 40 40 40 41 42 43 44 45 46 47 47 46 46 47 47 48 49 49 49 49 50 49 49 49 48 47 45 45 44 44
42 42 42 42 41 40 39 39 39 38 39 39 40 40 41 41 42 43 44 45 47 47 47 47 47 48 49 49 49 49 49 49 49 48 48 48 48 46 45 44 44 44 44
42 42 42 42 41 41 40 39 39 40 40 41 41 41 42 42 44 45 46 47 48 48 47 47 48 49 50 50 50 50 50 49 48 48 47 47 46 44 43 43 43 43 43
42 41 41 42 42 42 41 41 40 40 41 41 42 43 43 44 45 46 47 48 48 48 47 47 48 49 49 50 49 49 48 48 48 48 48 46 44 42 42 42 42 42 41
42 42 41 42 41 41 41 41 41 42 42 42 42 44 45 46 46 47 48 48 48 49 48 48 48 49 49 49 48 48 48 47 48 48 46 45 43 42 42 41 40 39 39
42 42 42 42 41 42 42 42 42 42 42 43 44 45 46 46 47 47 48 48 48 48 48 48 48 49 48 48 47 47 47 47 47 47 45 43 42 41 40 39 38 38 37
42 42 42 42 42 42 42 43 43 44 44 45 45 45 46 47 47 47 47 47 48 48 48 48 47 47 46 46 46 46 46 46 46 45 43 41 41 40 38 37 36 36 36
42 42 42 42 42 42 43 43 44 44 44 45 45 46 47 47 47 47 47 48 48 48 47 47 46 45 45 45 45 45 45 45 44 42 41 40 39 37 36 35 35 35 35
42 42 42 42 42 42 43 43 43 44 44 44 45 46 47 47 47 47 46 47 47 46 46 46 45 44 44 44 44 44 44 43 41 40 39 38 37 36 35 34 34 34 33
43 43 43 43 43 43 43 43 43 44 44 45 45 46 46 46 45 44 44 45 45 45 45 45 44 44 43 43 43 43 43 42 39 38 37 35 35 34 33 33 33 33 32
43 44 44 43 43 43 43 43 43 43 44 45 45 45 45 44 44 43 43 44 44 44 44 43 42 42 42 42 42 42 41 39 36 35 35 34 33 32 32 32 31 31 29
43 43 44 42 42 42 42 42 43 43 44 44 43 43 43 43 42 42 42 42 42 42 42 41 40 40 40 41 41 40 38 36 34 33 33 32 31 29 29 29 28 28 28
43 43 43 42 42 41 41 42 42 42 42 42 42 42 41 41 41 41 41 41 41 40 40 38 38 38 39 39 38 36 34 33 32 31 31 30 28 27 27 27 27 27 26
Wind_Direction
261 265 270 273 274 277 280 283 286 289 291 294 297 299 300 300 300 300 301 302 302 302 303 303 303 303 303 303 303 302 302 301 301 301 300 299 298 298 296 295 294 294 293
261 265 269 273 274 276 280 284 286 288 290 294 296 298 299 299 300 301 301 302 303 303 303 303 303 303 304 304 304 303 303 302 302 302 300 299 299 297 297 296 295 294 293
260 264 268 271 273 275 278 282 284 286 289 292 294 296 298 299 299 300 301 301 302 303 304 303 303 303 304 304 304 304 304 304 303 302 301 300 299 298 297 296 295 294 293
259 263 267 270 273 275 276 279 283 286 289 290 293 295 296 298 299 299 301 301 302 303 303 303 303 303 304 304 305 305 305 304 303 302 301 300 299 298 296 296 295 294 293
260 263 266 269 272 274 276 278 281 285 288 289 291 293 294 295 298 299 300 301 302 303 303 303 303 303 304 305 305 305 305 304 303 302 301 300 299 298 297 296 295 294 293
260 263 265 268 271 273 275 277 279 283 286 288 290 291 293 295 297 299 300 300 301 302 303 303 303 303 304 304 305 305 304 304 303 302 301 301 300 299 298 296 295 295 294
260 262 264 266 269 272 274 276 279 282 285 287 289 291 292 294 296 298 299 300 301 302 302 303 304 304 304 304 305 305 305 304 303 303 302 302 301 300 299 298 297 296 295
258 259 263 265 269 271 272 274 278 281 284 286 288 290 292 294 295 297 298 300 301 302 303 304 305 306 307 307 306 306 306 305 304 304 303 303 302 302 302 301 299 298 297
259 261 262 265 268 270 271 274 277 280 283 286 287 289 291 294 295 296 298 300 302 303 304 305 306 307 307 308 307 307 307 307 306 305 304 304 304 304 303 302 301 300 298
258 261 263 264 267 269 271 274 277 280 283 285 287 289 292 294 296 297 298 300 302 304 305 306 307 307 307 307 308 308 308 307 307 306 306 305 305 304 303 303 302 300 299
259 261 262 263 266 268 271 274 277 279 281 284 286 289 291 294 296 297 298 301 303 304 305 306 307 308 308 308 308 308 309 308 307 306 306 306 305 304 304 303 302 300 299
260 262 262 263 265 268 271 273 277 279 280 283 285 288 291 293 295 297 298 300 302 305 305 306 307 308 309 309 308 308 309 309 307 306 306 306 305 305 304 303 302 300 299
259 260 262 265 266 268 270 273 275 278 280 283 285 288 291 293 295 297 299 301 302 304 305 306 307 308 309 310 310 310 310 310 309 308 307 306 306 305 304 303 302 301 301
259 261 263 266 267 270 271 272 274 277 280 283 286 288 290 293 295 297 299 301 303 304 305 305 306 307 309 310 311 312 311 311 311 310 309 308 306 306 305 304 303 303 303
260 262 264 266 267 269 271 272 274 277 280 283 286 288 290 292 295 296 299 301 303 304 306 305 305 306 308 310 311 311 312 313 312 312 311 311 310 308 306 306 305 305 304
262 264 265 265 267 268 271 273 275 278 280 282 284 286 289 292 294 296 298 301 303 304 305 305 306 307 308 309 311 311 312 312 312 313 312 312 311 309 309 308 307 307 306
262 264 265 265 266 267 269 272 276 278 280 282 284 286 289 292 294 296 297 300 302 303 304 305 306 307 308 309 310 311 312 312 313 313 313 313 312 310 311 310 310 309 308
262 263 264 266 266 267 270 273 275 277 279 281 284 287 289 292 294 295 297 299 300 302 304 305 306 307 307 309 310 311 311 312 312 313 314 314 313 312 312 312 311 310 310
261 262 263 265 267 269 271 272 274 277 279 282 284 287 289 291 293 295 297 298 300 302 303 304 306 306 307 308 309 311 312 312 314 314 314 314 315 314 313 313 312 312 312
261 261 262 265 268 270 272 274 275 278 280 282 284 287 289 291 292 294 296 297 299 301 303 305 306 306 307 308 310 311 312 312 314 314 314 314 315 315 315 314 313 314 313
260 262 263 266 268 270 272 274 276 279 281 283 284 286 289 290 291 293 295 297 299 301 302 304 305 306 308 309 310 311 312 313 313 313 313 314 315 315 315 315 315 315 315
260 262 265 267 268 270 272 274 277 279 281 283 285 286 287 289 291 293 295 297 299 300 302 304 305 306 308 309 311 311 312 313 313 312 313 314 315 316 316 316 317 318 319
260 262 264 267 268 270 272 274 276 279 281 283 285 286 287 289 290 292 294 296 298 300 302 303 304 306 308 309 310 311 312 314 314 313 313 315 316 317 317 318 319 321 321
260 262 263 265 268 269 271 273 276 279 282 283 285 286 287 288 290 291 293 296 297 299 300 302 304 305 307 308 310 312 313 314 314 314 315 316 316 317 318 321 323 324 325
260 262 263 265 267 269 271 273 275 278 281 283 285 286 287 289 289 291 293 295 296 298 300 301 302 304 305 307 310 312 313 313 313 314 315 316 317 318 320 323 325 327 329
260 261 263 265 267 270 272 274 276 278 280 282 285 286 288 289 289 291 292 294 295 296 298 299 301 303 305 308 310 312 314 313 313 313 315 316 318 320 322 325 327 329 331
Height
5846 5846 5846 5845 5845 5844 5843 5843 5841 5840 5838 5837 5835 5833 5830 5828 5825 5823 5820 5817 5815 5811 5808 5805 5802 5798 5795 5791 5788 5784 5780 5777 5773 5769 5765 5761 5756 5753 5749 5745 5741 5737 5734
5841 5841 5841 5840 5840 5840 5839 5838 5836 5835 5833 5832 5830 5828 5825 5823 5820 5817 5815 5812 5809 5806 5802 5799 5795 5792 5788 5784 5781 5777 5773 5769 5765 5760 5756 5752 5748 5744 5740 5736 5732 5728 5724
5835 5835 5836 5835 5835 5834 5834 5832 5831 5830 5828 5826 5824 5822 5820 5817 5815 5812 5809 5806 5803 5799 5796 5792 5789 5785 5781 5777 5773 5769 5765 5761 5756 5752 5747 5742 5738 5734 5730 5726 5722 5718 5714
5830 5830 5830 5830 5829 5829 5828 5827 5826 5824 5823 5821 5819 5817 5814 5812 5809 5806 5803 5800 5796 5793 5789 5786 5782 5778 5774 5770 5766 5761 5757 5752 5747 5742 5738 5733 5728 5724 5719 5715 5711 5706 5702
5824 5824 5824 5824 5823 5823 5822 5821 5820 5818 5817 5815 5813 5811 5808 5806 5803 5800 5796 5793 5789 5786 5782 5779 5775 5771 5766 5762 5758 5753 5748 5743 5738 5733 5728 5723 5718 5713 5708 5703 5699 5694 5689
5817 5818 5818 5818 5817 5817 5816 5815 5814 5812 5810 5808 5806 5804 5802 5799 5796 5793 5790 5786 5783 5779 5775 5771 5767 5763 5759 5754 5749 5744 5739 5733 5728 5723 5717 5712 5707 5702 5696 5691 5686 5681 5676
5810 5811 5811 5811 5810 5810 5809 5808 5807 5806 5804 5802 5800 5798 5795 5792 5789 5786 5783 5779 5776 5772 5768 5764 5759 5755 5750 5745 5740 5735 5729 5723 5718 5712 5707 5701 5696 5690 5684 5678 5673 5668 5663
5803 5803 5803 5804 5803 5803 5802 5801 5800 5799 5797 5795 5793 5791 5789 5787 5783 5780 5776 5772 5769 5765 5760 5756 5751 5746 5741 5736 5730 5724 5719 5713 5707 5701 5695 5690 5684 5678 5672 5666 5661 5655 5649
5795 5795 5796 5796 5796 5796 5795 5794 5793 5792 5790 5788 5786 5784 5781 5779 5776 5773 5769 5765 5761 5757 5752 5747 5742 5737 5731 5726 5720 5714 5709 5702 5696 5690 5684 5678 5672 5666 5660 5654 5648 5642 5637
5787 5788 5788 5788 5788 5788 5788 5787 5786 5785 5783 5781 5779 5776 5774 5771 5768 5765 5762 5757 5753 5748 5744 5738 5733 5727 5722 5716 5710 5704 5698 5692 5686 5679 5673 5667 5661 5654 5648 5642 5636 5629 5624
5779 5780 5780 5780 5780 5781 5780 5780 5778 5777 5775 5774 5772 5769 5766 5763 5760 5757 5754 5750 5745 5740 5735 5729 5724 5718 5712 5706 5700 5694 5688 5681 5675 5668 5662 5655 5649 5643 5636 5629 5623 5617 5611
5771 5772 5772 5772 5773 5773 5772 5772 5771 5769 5768 5766 5764 5762 5759 5756 5753 5749 5745 5741 5737 5732 5726 5720 5714 5708 5702 5696 5690 5684 5677 5670 5664 5657 5650 5644 5637 5630 5623 5616 5610 5604 5598
5762 5763 5764 5764 5764 5764 5764 5763 5763 5761 5760 5758 5756 5754 5751 5748 5744 5740 5736 5732 5728 5723 5717 5711 5705 5698 5692 5686 5680 5674 5667 5660 5653 5646 5639 5632 5625 5618 5611 5604 5597 5591 5586
5754 5755 5755 5756 5756 5756 5755 5754 5754 5753 5751 5750 5747 5745 5742 5739 5736 5732 5727 5723 5719 5715 5709 5702 5695 5689 5683 5676 5670 5663 5656 5649 5641 5634 5627 5620 5613 5605 5598 5592 5585 5580 5574
5745 5745 5746 5746 5747 5747 5746 5746 5745 5744 5743 5741 5739 5736 5733 5730 5727 5722 5718 5713 5709 5704 5700 5693 5686 5680 5673 5666 5660 5652 5646 5638 5631 5623 5616 5608 5601 5593 5587 5580 5574 5568 5563
5735 5736 5737 5737 5737 5737 5737 5737 5736 5735 5734 5732 5729 5727 5724 5721 5717 5713 5708 5703 5698 5693 5689 5683 5677 5670 5663 5657 5649 5642 5635 5628 5620 5613 5605 5597 5590 5583 5576 5570 5564 5558 5552
5726 5727 5727 5727 5728 5728 5728 5727 5727 5725 5724 5722 5720 5717 5714 5711 5707 5703 5698 5694 5688 5683 5678 5673 5667 5660 5653 5647 5640 5632 5625 5618 5611 5603 5595 5587 5580 5573 5567 5560 5554 5548 5542
5716 5717 5717 5718 5718 5718 5718 5717 5717 5716 5714 5712 5710 5707 5704 5701 5697 5693 5688 5683 5678 5673 5668 5663 5657 5650 5643 5636 5630 5623 5615 5608 5601 5593 5586 5578 5571 5564 5557 5551 5545 5539 5533
5706 5707 5707 5708 5708 5708 5708 5707 5706 5705 5704 5702 5700 5697 5694 5690 5686 5682 5678 5673 5668 5663 5657 5653 5647 5640 5634 5627 5620 5613 5606 5599 5591 5583 5576 5569 5562 5556 5549 5543 5536 5530 5524
5696 5697 5697 5698 5698 5698 5698 5697 5696 5695 5693 5691 5689 5686 5683 5679 5676 5672 5667 5663 5658 5653 5647 5642 5637 5631 5624 5618 5611 5605 5598 5591 5583 5575 5568 5561 5554 5548 5542 5535 5529 5523 5516
5686 5686 5687 5688 5688 5688 5687 5687 5686 5684 5683 5681 5678 5675 5672 5668 5665 5661 5657 5652 5648 5643 5637 5632 5627 5621 5615 5609 5602 5596 5589 5582 5575 5567 5560 5554 5547 5541 5534 5528 5522 5515 5509
5675 5676 5677 5677 5677 5677 5677 5676 5675 5674 5672 5670 5667 5664 5661 5658 5654 5650 5646 5641 5637 5632 5627 5622 5617 5612 5606 5600 5593 5587 5580 5574 5568 5561 5553 5546 5540 5534 5527 5522 5515 5509 5502
5664 5665 5666 5666 5666 5666 5666 5665 5664 5663 5661 5659 5656 5653 5650 5646 5643 5639 5636 5631 5627 5622 5617 5613 5608 5602 5597 5592 5585 5579 5571 5564 5558 5552 5546 5540 5533 5527 5521 5515 5509 5503 5496
5653 5654 5655 5655 5655 5655 5655 5654 5653 5652 5650 5647 5645 5642 5639 5636 5632 5629 5626 5622 5617 5613 5609 5604 5599 5594 5588 5582 5576 5570 5563 5557 5551 5545 5539 5533 5527 5521 5515 5509 5503 5497 5491
5643 5643 5644 5644 5645 5645 5644 5643 5642 5641 5639 5637 5634 5631 5628 5625 5622 5619 5616 5613 5609 5604 5599 5595 5590 5585 5579 5574 5568 5562 5556 5550 5545 5540 5533 5527 5522 5516 5510 5505 5499 5493 5487
5631 5632 5633 5633 5634 5634 5633 5633 5631 5630 5628 5626 5624 5621 5618 5615 5612 5609 5606 5603 5599 5595 5591 5586 5582 5577 5572 5566 5561 5555 5549 5544 5539 5534 5528 5523 5517 5511 5507 5502 5496 5490 5484